Regional Weather Roundup
Issued by NWS

Home | Current Version | Previous Version | Graphics & Text | Print | Product List | Glossary On
Versions: 1 2 3 4 5 6 7 8 9 10 11 12 13 14 15 16 17 18 19 20 21 22 23 24 25 26 27 28 29 30 31 32 33 34 35 36 37 38 39 40 41 42 43 44 45 46 47 48 49 50
000
ASUS45 KBOU 030507
RWRCO

WEATHER ROUNDUP FOR COLORADO
NATIONAL WEATHER SERVICE DENVER/BOULDER CO
1100 PM MDT SAT MAY 02 2015

NOTE: "FAIR" INDICATES FEW OR NO CLOUDS BELOW 12000 FEET WITH NO
SIGNIFICANT WEATHER AND/OR OBSTRUCTIONS TO VISIBILITY.

COZ001>005-013-030-031-030600-
...NORTHWEST COLORADO...

CITY           SKY/WX    TMP DP  RH WIND       PRES   REMARKS
CRAIG          PTCLDY    49  39  68 E6        30.02R
HAYDEN         PTCLDY    48  34  57 E10       30.04S
MEEKER         CLOUDY    51  37  58 NE6       30.03F
MOUNT WERNER   NOT AVBL
STEAMBOAT SPGS PTCLDY    44  36  73 CALM      30.07S
WALDEN         CLOUDY    36  32  87 E5        30.12S
$$

COZ006>008-011-030600-
...WEST CENTRAL VALLEYS...

CITY           SKY/WX    TMP DP  RH WIND       PRES   REMARKS
GRAND JUNCTION MOCLDY    67  32  27 E6G18     29.90R
MONTROSE       PTCLDY    62  29  28 SW5       29.98R
EAGLE          PTCLDY    46  37  71 CALM      30.10F
RIFLE          MOCLDY    58  37  45 N5        30.01R
DELTA          PTCLDY    64  31  29 NE9       29.93F
NUCLA          PTCLDY    61  23  23 E7        30.01S
$$

COZ017>023-064>068-030600-
...SOUTHWEST COLORADO...

CITY           SKY/WX    TMP DP  RH WIND       PRES   REMARKS
DURANGO        MOCLDY    54  34  46 CALM      30.11S
CORTEZ         CLEAR     56  33  42 E5        30.05R
PAGOSA SPRINGS CLOUDY    56  30  37 CALM      30.18F
TELLURIDE      CLOUDY    48  28  44 E6        30.21S
WOLF CREEK PAS NOT AVBL
$$

COZ009-010-012-014-032>034-037-058>063-030600-
...CENTRAL COLORADO...

CITY           SKY/WX    TMP DP  RH WIND       PRES   REMARKS
ASPEN          PTCLDY    42  36  79 SW10      30.12F
BUENA VISTA    NOT AVBL
COPPER MTN     PTCLDY    36  30  80 S10       30.33S
BERTHOUD PASS  FAIR      30  21  69 W8        30.34F WCI  23
COTTONWOOD PAS LGT RAIN  45  32  61 NW15G24   30.26R
GUNNISON       PTCLDY    52  28  40 N5        30.16R
KREMMLING      PTCLDY    43  34  70 NW3       30.14R
LEADVILLE      PTCLDY    35  32  88 CALM      30.24S
SALIDA         MOCLDY    48  42  77 W7        30.23R
SUNLIGHT       PTCLDY    39  32  75 CALM      30.28S
WILKERSON PASS MOCLDY    36  28  75 W7        30.32F
$$

COZ069>075-030600-
...SAN LUIS VALLEY/SANGRE DE CRISTO MOUNTAINS...

CITY           SKY/WX    TMP DP  RH WIND       PRES   REMARKS
ALAMOSA        CLOUDY    46  39  76 S8        30.16S
LA VETA PASS   CLOUDY    39  32  75 MISG      30.25S
SAGUACHE       PTCLDY    43  36  75 CALM      30.17S
$$

COZ035-036-038>040-030600-
...NORTHERN COLORADO FRONT RANGE...

CITY           SKY/WX    TMP DP  RH WIND       PRES   REMARKS
DENVER INTL AP MOCLDY    54  40  59 S15       29.98F
DMNS CITY PARK   N/A     57  39  51 S6        29.98F
AURORA         MOCLDY    51  41  68 S9        30.01F
FRONT RANGE AP NOT AVBL
ERIE MUNI ARPT MOCLDY    57  40  54 SW5       29.96F
BOULDER MUN AP MOCLDY    61  34  36 CALM      29.97S
CENTENNIAL     MOCLDY    50  41  71 S6        30.02F
BROOMFIELD     NOT AVBL
FORT COLLINS   CLOUDY    55  39  54 SE9       29.95F
LONGMONT       CLOUDY    62  37  40 SW8       29.96F
$$

COZ041-046-047-076>085-087-088-030600-
...PIKES PEAK/PALMER DIVIDE AND SOUTHERN FOOTHILLS...

CITY           SKY/WX    TMP DP  RH WIND       PRES   REMARKS
COLO. SPRINGS  MOCLDY    56  38  50 W6        30.04S
A. F. ACADEMY  PTCLDY    48  40  73 N7        30.06S
ELLICOTT         N/A    N/A N/A N/A E8        30.03F
FALCON         MOCLDY    51  37  59 N7        30.09S
FORT CARSON    CLOUDY    56  41  56 E6        30.02R
LIMON          CLOUDY    53  42  66 SE5       30.00F
MONUMENT HILL  MOCLDY    43  37  81 SW5       30.08S
TRINIDAD       CLOUDY    58  39  49 CALM      30.04R
$$

COZ042>045-048>051-090-091-030600-
...NORTHEAST COLORADO...

CITY           SKY/WX    TMP DP  RH WIND       PRES   REMARKS
GREELEY ARPT   CLOUDY    59  39  47 SW9       29.95S
AKRON          MOCLDY    53  45  74 S8        29.93S
BURLINGTON     CLOUDY    59  43  55 SW6       29.95F
WRAY           CLOUDY    61  45  54 W10       29.86F
STERLING       MOCLDY    54  48  82 SW6       29.89S
HOLYOKE        NOT AVBL
FORT MORGAN    MOCLDY    52  32  47 S3        29.94S
$$

COZ086-089-092>099-030600-
...SOUTHEAST COLORADO...

CITY           SKY/WX    TMP DP  RH WIND       PRES   REMARKS
PUEBLO         MOCLDY    59  43  55 NE7       29.98R
LA JUNTA       MOCLDY    61  43  51 MISG      29.95R
LAMAR          CLOUDY    63  47  55 E12       29.85F
SPRINGFIELD      N/A     57  45  64 W5        29.93S
$$


USA.gov is the U.S. government's official web portal to all federal, state and local government web resources and services.